Probability
0 0 0 0 0 0 0 0 0 0 0 0 0 0 0 0 0 0 0 0 0 0 0 0 0 0 0 0 0 0 0 0 0 0 0 0 0 0 0 0 0 0 0 0
0 0 0 0 0 0 0 0 0 0 0 0 0 0 0 0 0 0 0 0 0 0 0 0 0 0 0 0 0 0 0 0 0 0 0 0 0 0 0 0 0 0 0 0
0 0 0 0 0 0 0 0 0 0 0 0 0 0 0 0 0 0 0 0 0 0 0 0 0 0 0 0 0 0 0 0 0 0 0 0 0 0 0 0 0 0 0 0
0 0 0 0 0 0 0 0 0 0 0 0 0 0 0 0 0 0 0 0 0 0 0 0 0 0 0 0 0 0 0 0 0 0 0 0 0 0 0 0 0 0 0 0
0 0 0 0 0 0 0 0 0 0 0 0 0 0 0 0 0 0 0 0 0 0 0 0 0 0 0 0 0 0 0 0 0 0 0 0 0 0 0 0 0 0 0 0
0 0 0 0 0 0 0 0 0 0 0 0 0 0 0 0 0 0 0 0 0 0 0 0 0 0 0 0 0 0 0 0 0 0 0 0 0 0 0 0 0 0 0 0
0 0 0 0 0 0 0 0 0 0 0 0 0 0 0 0 0 0 0 0 0 0 0 0 0 0 0 0 0 0 0 0 0 0 0 0 0 0 0 0 0 0 0 0
0 0 0 0 0 0 0 0 0 0 0 0 0 0 0 0 0 0 0 0 0 0 0 0 0 0 0 0 0 0 0 0 0 0 0 0 0 0 0 0 0 0 0 0
0 0 0 0 0 0 0 0 0 0 0 0 0 0 0 0 0 0 0 0 0 0 0 0 0 0 0 0 0 0 0 0 0 0 0 0 0 0 0 0 0 0 0 0
0 0 0 0 0 0 0 0 0 0 0 0 0 0 0 0 0 0 0 0 0 0 0 0 0 0 0 0 0 0 0 0 0 0 0 0 0 0 0 0 0 0 0 0
0 0 0 0 0 0 0 0 0 0 0 0 0 0 0 0 0 0 0 0 0 0 0 0 0 0 0 0 0 0 0 0 0 0 0 0 0 0 0 0 0 0 0 0
0 0 0 0 0 0 0 0 0 0 0 0 0 0 0 0 0 0 0 0 0 0 0 0 0 0 0 0 0 0 0 0 0 0 0 0 0 0 0 0 0 0 0 0
0 0 0 0 0 0 0 0 0 0 0 0 0 0 0 0 0 0 0 0 0 0 0 0 0 0 0 0 0 0 0 0 0 0 0 0 0 0 0 0 0 0 0 0
0 0 0 0 0 0 0 0 0 0 0 0 0 0 0 0 0 0 0 0 0 0 0 0 0 0 0 0 0 0 0 0 0 0 0 0 0 0 0 0 0 0 0 0
0 0 0 0 0 0 0 0 0 0 0 0 0 0 0 0 0 0 0 0 0 0 0 0 0 0 0 0 0 0 0 0 0 0 0 0 0 0 0 0 0 0 0 0
0 0 0 0 0 0 0 0 0 0 0 0 0 0 0 0 0 0 0 0 0 0 0 0 0 0 0 0 0 0 0 0 0 0 0 0 0 0 0 0 0 0 0 0
0 0 0 0 0 0 0 0 0 0 0 0 0 0 0 0 0 0 0 0 0 0 0 0 0 0 0 0 0 0 0 0 0 0 0 0 0 0 0 0 0 0 0 0
0 0 0 0 0 0 0 0 0 0 0 0 0 0 0 0 0 0 0 0 0 0 0 0 0 0 0 0 0 0 0 0 0 0 0 0 0 0 0 0 0 0 0 0
0 0 0 0 0 0 0 0 0 0 0 0 0 0 0 0 0 0 0 0 0 0 0 0 0 0 0 0 0 0 0 0 0 0 0 0 0 0 0 0 0 0 0 0
0 0 0 0 0 0 0 0 0 0 0 0 0 0 0 0 0 0 0 0 0 0 0 0 0 0 0 0 0 0 0 0 0 0 0 0 0 0 0 0 0 0 0 0
0 0 0 0 0 0 0 0 0 0 0 0 0 0 0 0 0 0 0 0 0 0 0 0 0 0 0 0 0 0 0 0 0 0 0 0 0 0 0 0 0 0 0 0
0 0 0 0 0 0 0 0 0 0 0 0 0 0 0 0 0 0 0 0 0 0 0 0 0 0 0 0 0 0 0 0 0 0 0 0 0 0 0 0 0 0 0 0
0 0 0 0 0 0 0 0 0 0 0 0 0 0 0 0 0 0 0 0 0 0 0 0 0 0 0 0 0 0 0 0 0 0 0 0 0 0 0 0 0 0 0 0
0 0 0 0 0 0 0 0 0 0 0 0 0 0 0 0 0 0 0 0 0 0 0 0 0 0 0 0 0 0 0 0 0 0 0 0 0 0 0 0 0 0 0 0
0 0 0 0 0 0 0 0 0 0 0 0 0 0 0 0 0 0 0 0 0 0 0 0 0 0 0 0 0 0 0 0 0 0 0 0 0 0 0 0 0 0 0 0
0 0 0 0 0 0 0 0 0 0 0 0 0 0 0 0 0 0 0 0 0 0 0 0 0 0 0 0 0 0 0 0 0 0 0 0 0 0 0 0 0 0 0 0
Height
5700 5702 5702 5704 5704 5704 5705 5706 5706 5708 5708 5709 5710 5712 5713 5714 5715 5717 5719 5720 5721 5722 5723 5724 5725 5726 5727 5728 5728 5729 5729 5730 5730 5731 5731 5732 5732 5733 5733 5734 5734 5734 5735 5735
5693 5694 5695 5694 5694 5695 5695 5696 5698 5698 5699 5699 5701 5702 5703 5704 5706 5708 5709 5710 5711 5712 5713 5714 5715 5716 5717 5718 5719 5719 5720 5720 5721 5721 5721 5722 5722 5723 5724 5724 5724 5724 5725 5726
5686 5688 5687 5686 5686 5686 5687 5688 5689 5690 5690 5690 5691 5693 5694 5695 5697 5698 5699 5700 5701 5702 5703 5704 5705 5706 5707 5708 5709 5709 5710 5710 5711 5711 5711 5711 5712 5713 5713 5714 5714 5715 5715 5715
5678 5679 5678 5678 5678 5678 5679 5680 5680 5681 5681 5681 5683 5683 5686 5687 5688 5689 5690 5690 5691 5692 5693 5694 5695 5696 5697 5698 5698 5699 5699 5700 5700 5700 5701 5701 5702 5703 5703 5703 5704 5704 5704 5705
5670 5671 5670 5670 5671 5670 5671 5671 5672 5672 5672 5673 5673 5673 5677 5677 5678 5680 5681 5681 5681 5682 5683 5684 5684 5685 5686 5687 5687 5688 5688 5689 5689 5690 5690 5690 5691 5691 5692 5692 5693 5693 5693 5694
5663 5663 5662 5663 5663 5662 5663 5663 5663 5663 5663 5664 5666 5665 5667 5668 5669 5671 5671 5672 5672 5672 5672 5673 5674 5675 5676 5676 5677 5677 5678 5678 5678 5678 5679 5679 5679 5680 5680 5681 5681 5681 5682 5682
5655 5655 5654 5654 5655 5655 5655 5655 5655 5653 5653 5655 5657 5656 5659 5660 5660 5660 5661 5661 5661 5661 5662 5662 5663 5664 5665 5665 5666 5666 5666 5667 5667 5667 5667 5668 5668 5668 5669 5670 5670 5670 5670 5670
5647 5647 5647 5646 5647 5647 5647 5647 5647 5646 5646 5647 5647 5647 5651 5651 5650 5650 5650 5651 5651 5651 5651 5651 5652 5653 5654 5654 5654 5655 5655 5655 5655 5655 5655 5655 5656 5656 5657 5657 5658 5658 5658 5658
5638 5639 5639 5638 5638 5638 5638 5638 5639 5638 5637 5637 5637 5639 5641 5641 5640 5640 5640 5640 5640 5640 5640 5641 5641 5642 5642 5643 5643 5643 5643 5643 5643 5643 5643 5643 5643 5643 5644 5644 5645 5645 5645 5645
5630 5630 5631 5630 5629 5629 5630 5630 5630 5629 5628 5627 5628 5630 5632 5631 5631 5630 5630 5629 5629 5630 5630 5630 5630 5630 5631 5631 5631 5631 5631 5631 5631 5630 5630 5630 5630 5630 5630 5631 5632 5632 5632 5632
5622 5622 5622 5622 5621 5622 5622 5622 5621 5620 5619 5619 5619 5623 5622 5621 5620 5620 5619 5619 5618 5619 5619 5619 5619 5619 5619 5619 5619 5619 5619 5618 5618 5617 5617 5616 5616 5616 5617 5617 5618 5618 5619 5618
5614 5614 5613 5614 5613 5613 5612 5613 5612 5612 5611 5610 5610 5614 5612 5611 5610 5609 5609 5608 5608 5608 5608 5608 5608 5608 5607 5607 5607 5606 5606 5605 5605 5604 5604 5603 5603 5603 5603 5603 5604 5604 5605 5605
5606 5606 5605 5605 5607 5605 5604 5604 5603 5602 5602 5601 5601 5605 5602 5601 5599 5599 5598 5598 5597 5597 5597 5596 5596 5596 5595 5595 5594 5593 5593 5592 5592 5591 5590 5590 5590 5589 5590 5590 5590 5590 5591 5590
5598 5597 5598 5598 5597 5596 5596 5595 5594 5593 5592 5591 5592 5593 5593 5590 5589 5588 5588 5587 5587 5586 5586 5585 5585 5584 5583 5582 5582 5581 5580 5580 5579 5578 5578 5577 5577 5576 5576 5576 5576 5576 5576 5576
5589 5589 5589 5588 5588 5587 5587 5586 5585 5584 5583 5582 5583 5582 5582 5580 5579 5578 5577 5576 5575 5575 5574 5573 5573 5572 5571 5570 5569 5569 5568 5567 5566 5566 5565 5564 5564 5563 5563 5563 5562 5562 5562 5562
5581 5580 5580 5580 5578 5577 5577 5578 5576 5575 5574 5573 5572 5572 5572 5569 5568 5567 5566 5565 5564 5564 5563 5562 5561 5560 5559 5558 5558 5557 5556 5555 5554 5553 5552 5552 5551 5550 5549 5549 5549 5549 5549 5549
5572 5572 5571 5570 5569 5567 5568 5569 5567 5566 5565 5564 5562 5563 5560 5559 5557 5556 5555 5554 5553 5552 5551 5550 5549 5549 5548 5547 5546 5545 5544 5543 5542 5541 5540 5539 5538 5537 5536 5535 5535 5535 5535 5535
5563 5562 5561 5560 5559 5557 5562 5559 5557 5556 5555 5554 5552 5552 5550 5548 5547 5546 5544 5543 5542 5541 5540 5539 5537 5537 5536 5535 5534 5533 5531 5530 5529 5528 5526 5525 5524 5523 5522 5521 5521 5521 5521 5521
5554 5553 5551 5550 5548 5548 5551 5550 5547 5545 5546 5545 5542 5541 5539 5538 5536 5535 5533 5532 5530 5529 5528 5527 5525 5524 5523 5522 5521 5520 5519 5517 5516 5514 5513 5512 5510 5509 5508 5508 5507 5507 5507 5507
5545 5544 5543 5541 5538 5538 5543 5540 5537 5536 5536 5535 5532 5530 5529 5527 5526 5525 5522 5520 5518 5517 5515 5514 5513 5512 5511 5509 5508 5507 5505 5504 5503 5501 5500 5498 5497 5496 5495 5494 5494 5494 5494 5494
5536 5535 5533 5531 5528 5529 5531 5529 5527 5526 5526 5524 5521 5519 5517 5516 5514 5513 5510 5508 5506 5505 5503 5502 5501 5500 5498 5497 5495 5493 5492 5490 5489 5487 5486 5485 5483 5482 5481 5481 5480 5480 5480 5480
5526 5525 5524 5521 5519 5522 5520 5518 5517 5515 5513 5511 5509 5508 5506 5504 5502 5501 5499 5497 5495 5493 5492 5490 5489 5487 5486 5484 5482 5481 5479 5477 5475 5474 5472 5471 5469 5468 5467 5466 5466 5465 5466 5466
5517 5516 5514 5513 5513 5512 5509 5507 5505 5503 5502 5500 5498 5497 5495 5493 5491 5489 5487 5485 5483 5481 5480 5478 5476 5475 5473 5471 5470 5468 5466 5464 5462 5460 5458 5457 5455 5454 5453 5452 5451 5451 5451 5451
5507 5505 5504 5503 5503 5501 5498 5496 5494 5492 5490 5488 5487 5485 5483 5481 5480 5478 5476 5474 5472 5470 5468 5466 5464 5463 5461 5459 5457 5455 5453 5451 5449 5447 5445 5443 5442 5440 5438 5437 5437 5436 5436 5436
5497 5495 5494 5492 5492 5489 5488 5485 5483 5481 5479 5477 5475 5473 5472 5470 5468 5466 5464 5463 5461 5458 5456 5454 5452 5450 5449 5447 5445 5442 5440 5438 5436 5433 5431 5429 5428 5426 5424 5423 5422 5422 5421 5420
5488 5486 5484 5483 5481 5478 5477 5474 5472 5470 5468 5466 5464 5462 5460 5458 5457 5455 5453 5451 5449 5447 5445 5443 5441 5439 5437 5435 5432 5430 5427 5425 5422 5420 5418 5416 5414 5412 5410 5409 5408 5406 5406 5405
Wind_Speed
27 28 28 29 31 32 33 33 34 33 33 33 34 34 35 35 35 34 34 34 34 35 35 35 36 35 35 36 36 37 37 36 37 38 38 38 38 38 38 37 37 38 39 39
28 28 28 29 30 32 33 33 33 33 34 33 33 34 34 35 35 34 34 34 35 35 36 36 36 37 37 37 37 37 37 37 38 38 38 39 39 38 38 38 38 38 39 40
27 27 29 30 30 31 32 32 32 33 33 34 34 34 34 34 34 34 35 35 35 35 36 36 37 37 37 38 38 38 38 38 38 38 38 39 39 39 40 40 40 40 41 41
27 27 28 29 30 31 31 32 32 33 33 33 34 34 33 33 34 34 34 35 35 36 36 37 38 37 37 38 38 39 39 39 40 39 39 39 40 41 41 42 41 41 42 41
28 28 28 29 28 30 31 31 31 32 32 33 33 34 33 33 34 34 34 34 35 35 36 37 37 37 37 37 38 39 39 40 40 40 40 40 41 41 42 42 42 43 43 43
28 28 29 28 28 29 29 29 31 31 32 33 32 33 33 32 34 34 34 34 35 36 36 37 37 37 37 37 38 38 39 40 41 42 41 41 41 42 42 43 43 44 45 45
27 27 28 28 28 28 28 29 30 32 33 33 31 32 32 31 32 33 34 34 35 36 36 36 37 37 38 38 38 38 39 40 40 41 42 42 42 42 43 44 44 44 46 47
26 27 27 28 28 28 28 29 29 31 32 33 33 32 31 31 31 33 34 34 35 36 36 36 36 37 38 38 39 39 40 40 41 42 42 43 44 44 45 46 45 45 46 47
26 26 26 28 28 28 28 28 29 31 33 34 34 33 32 31 32 33 33 34 35 35 36 36 37 37 38 39 39 40 41 42 42 42 43 44 45 45 46 47 47 47 47 48
27 27 27 27 28 29 30 30 30 32 33 34 35 34 33 32 33 33 33 34 35 35 36 37 38 38 38 39 40 41 42 43 43 43 44 45 46 47 47 48 48 48 48 48
27 27 27 27 27 28 29 31 32 33 34 35 36 34 33 33 33 34 34 34 35 36 37 38 38 38 39 40 40 41 42 43 43 44 44 45 46 47 48 48 49 48 48 48
27 28 28 27 27 28 28 29 31 33 34 35 37 36 34 34 34 34 34 35 36 36 37 38 39 39 40 41 42 42 42 42 43 44 45 45 45 46 47 48 48 49 49 48
27 28 28 28 29 29 29 30 31 33 34 35 36 35 34 35 35 34 35 36 36 36 37 38 39 40 41 42 42 43 43 42 43 44 44 45 45 46 46 47 47 48 49 49
28 29 29 30 30 30 30 31 31 32 34 35 35 34 33 34 35 35 35 36 37 37 37 38 39 40 41 41 42 42 42 42 42 43 43 44 44 45 45 46 47 47 48 48
29 29 29 30 31 32 32 32 32 33 33 34 34 34 33 34 34 34 35 37 37 38 38 38 39 39 40 41 41 42 42 42 42 42 43 43 44 44 45 45 47 47 47 48
29 30 30 30 31 32 33 32 33 33 33 34 34 33 33 35 35 35 36 37 37 37 37 38 38 39 39 40 40 41 42 42 42 42 42 43 44 45 46 45 46 47 48 48
30 30 31 31 31 32 33 31 32 32 32 33 34 33 33 34 35 36 36 37 37 36 37 37 38 38 39 39 40 40 41 42 42 43 43 44 45 45 45 45 46 47 47 47
30 31 32 32 33 35 32 32 33 34 33 33 34 34 34 35 35 36 37 37 37 37 38 38 39 39 39 40 40 41 41 41 42 43 44 44 45 45 45 46 46 47 47 48
30 31 33 34 36 36 34 33 33 34 33 33 34 34 35 36 36 37 37 38 38 38 39 39 39 40 40 40 40 41 41 42 42 42 43 44 44 44 45 45 46 47 47 47
30 31 33 34 36 37 34 33 34 34 34 33 34 35 36 37 37 37 38 38 39 39 39 39 39 40 40 40 41 42 43 43 43 43 43 44 45 44 44 44 45 45 46 46
30 31 33 34 36 36 34 34 34 35 35 35 35 36 36 37 38 38 38 39 39 39 39 39 39 40 40 41 42 42 43 43 43 43 44 44 44 44 45 44 44 45 45 46
32 33 34 34 36 34 34 34 35 35 35 36 36 37 37 37 38 38 38 38 38 39 39 39 39 39 40 41 42 42 42 42 42 42 42 43 44 44 44 45 45 45 45 46
33 34 35 35 35 35 34 34 35 36 36 37 38 38 39 38 38 38 37 37 37 38 38 39 39 38 39 39 40 40 40 41 41 41 42 42 42 43 44 44 44 45 45 45
34 35 35 35 35 36 36 35 35 36 36 37 38 38 39 38 38 37 37 36 36 37 37 38 38 38 38 38 38 39 39 40 41 41 41 41 42 43 43 43 43 44 45 45
34 34 34 35 35 35 35 36 36 36 36 37 37 37 37 37 37 36 36 36 36 37 37 37 37 37 37 38 39 39 39 40 41 41 41 41 42 42 42 43 43 43 44 44
33 33 34 34 34 35 35 36 36 36 36 37 37 37 36 36 36 36 36 36 36 36 37 37 38 38 39 39 40 40 41 41 41 41 41 41 41 41 41 41 42 42 43 44
Wind_Direction
260 259 258 257 256 255 255 255 255 255 255 256 255 254 253 253 254 255 256 256 257 257 258 259 259 259 260 260 261 261 262 261 260 260 260 260 261 261 261 261 261 261 259 259
262 261 259 258 258 255 255 256 256 256 257 257 256 253 252 253 254 255 255 256 257 257 258 258 259 258 259 260 261 262 262 262 262 261 260 259 259 259 259 259 260 261 260 260
264 263 261 260 260 259 257 257 257 259 258 258 258 255 253 253 255 257 257 256 257 257 257 258 259 259 260 260 261 261 262 262 262 262 261 260 259 259 259 260 260 261 261 260
263 262 262 262 262 261 260 258 259 260 261 261 261 260 256 256 256 257 258 257 257 257 257 257 259 260 260 260 261 261 261 261 262 262 262 261 260 260 260 261 260 260 261 260
265 264 263 263 263 262 262 260 260 262 262 262 262 263 260 259 258 258 259 259 259 259 258 258 258 259 260 260 261 261 262 262 262 262 263 262 262 261 260 261 262 261 261 261
265 265 264 264 263 262 262 261 263 263 262 262 263 264 263 262 262 261 261 261 261 261 260 259 259 259 259 260 261 262 262 263 262 262 263 264 263 263 262 263 264 263 263 263
266 264 264 264 263 262 262 263 264 263 262 263 264 265 265 264 263 263 263 263 262 261 261 260 260 259 259 260 261 262 263 264 264 264 264 264 264 264 264 264 264 264 264 264
269 266 265 265 263 262 263 264 264 265 266 266 266 267 268 268 266 264 263 263 262 262 261 261 261 261 261 260 261 263 263 264 265 265 265 265 264 264 264 263 264 265 265 265
271 269 267 266 264 262 262 263 264 266 268 268 268 268 268 269 269 267 266 264 263 263 262 262 261 261 261 261 262 263 264 265 265 266 266 265 265 263 264 264 265 266 266 267
272 271 267 267 265 264 263 264 265 266 269 271 270 270 270 270 271 271 268 267 265 263 263 263 262 261 261 262 262 263 265 266 267 267 267 266 265 264 265 265 266 267 268 268
271 271 270 266 265 266 265 264 264 266 268 269 272 273 272 272 273 272 270 268 266 264 263 263 263 263 263 263 263 264 266 266 267 267 267 268 267 266 266 266 267 268 269 269
271 272 271 269 267 266 266 266 266 267 269 269 272 273 273 273 273 273 270 267 267 266 265 264 264 265 265 265 265 265 266 267 268 268 268 269 268 268 267 266 267 268 268 268
271 271 272 270 268 268 267 268 268 268 269 270 272 273 273 273 273 273 270 267 267 268 267 266 266 266 267 267 267 267 267 268 269 269 269 270 270 269 268 267 267 268 268 267
270 271 272 272 272 271 271 270 270 271 271 272 273 273 272 272 273 273 271 269 269 269 268 268 268 268 269 269 269 269 269 269 270 270 271 271 270 270 269 268 267 268 267 266
270 272 272 271 270 270 270 271 271 273 274 274 274 272 272 273 274 273 271 270 270 271 271 271 271 271 270 271 271 271 270 270 271 272 272 272 272 271 270 270 268 266 266 266
271 272 273 273 272 271 270 271 272 273 274 275 274 273 273 273 274 273 273 272 272 273 272 272 272 272 271 271 271 271 272 272 272 272 273 274 273 272 271 270 269 267 267 266
271 272 273 275 274 273 273 274 273 275 276 276 277 276 275 275 275 274 274 273 273 273 272 272 272 272 271 270 271 272 272 273 273 273 273 273 273 273 272 270 268 267 267 265
271 272 274 275 275 273 277 276 276 276 277 277 277 276 275 276 276 276 275 274 274 274 274 274 272 271 271 271 272 272 272 274 274 274 274 274 274 272 272 271 269 267 267 266
272 272 274 275 276 276 276 278 277 277 277 279 279 278 277 277 278 278 277 276 275 274 274 273 273 272 271 271 272 272 273 274 274 274 274 274 274 273 272 271 269 268 266 266
273 274 274 276 278 278 278 278 277 278 278 279 280 280 279 278 278 279 277 276 275 274 274 273 273 273 272 272 273 274 274 275 274 274 273 273 274 274 272 271 270 268 267 265
274 275 276 278 279 279 280 280 279 279 281 281 280 280 280 279 279 279 279 278 277 275 275 275 274 274 274 275 276 276 276 276 276 275 274 274 274 273 272 271 270 269 267 266
274 276 277 278 279 283 283 282 280 280 280 280 280 280 280 281 281 281 280 280 279 277 276 275 275 276 276 277 277 277 278 278 278 276 276 276 275 274 273 272 271 269 268 268
274 276 278 279 280 281 282 282 280 279 279 279 279 280 280 281 281 281 281 280 280 280 278 277 277 278 278 279 279 278 279 279 279 278 278 277 276 275 274 273 271 269 268 268
276 276 277 279 280 280 280 280 280 280 279 280 280 280 281 281 282 282 282 281 281 280 280 280 280 280 280 280 281 280 281 281 280 280 279 278 277 277 276 274 271 269 268 268
277 277 278 280 280 279 279 280 279 279 280 280 280 281 281 281 281 282 281 282 282 281 281 282 282 282 282 282 283 282 282 282 281 281 281 280 279 277 276 275 273 271 270 268
277 279 280 281 280 279 279 279 279 279 280 281 281 281 281 281 280 280 281 282 283 283 283 283 282 283 283 284 284 284 283 283 283 282 282 282 280 278 276 275 274 273 271 269